SL-14 DEB, 45311

Orbit data source: Space-Track

SL-14 DEB, 45311 is space debris in LEO originally from a launch on Thu, 15 Aug 1991 UTC launched from the Plesetsk Missile And Space Complex (PKMTR). Debris objects in space refer to the collection of defunct objects orbiting the Earth. Examples of debris include non-operational satellites, rocket bodies, and fragments generated from explosions, collisions, or faulty payload assembly.

Loading next visibility...
Identifier
45311, 1991-056AZ
Orbit
LEO
Country
Flag of CISCIS
Related business
Manufacturer
Unknown
Mission
Spacecraft
Bus & Motor
Unknown
Mass
Unknown
Launch date (UTC)
1991-08-15 (35 years ago)
Launch vehicle
Unknown
Launch site
Plesetsk Missile And Space Complex (PKMTR)
Object type
Payload
Rocket body
Debris
Shape & HBR
Unknown shape, 0.1 m
Radar Cross Section
Medium (>0.1 m² and <1 m²)

Expand to show TLE details & history
Last TLE update: 12 hours ago

TLE from 12 hours ago
0 SL-14 DEB
1 45311U 91056AZ  26235.53203214  .00000089  00000-0  19313-3 0  9990
2 45311  82.5460  85.9517 0017593 300.2829  59.6553 13.18864528312482
Epoch: 2026-08-23T12:46Z
TLE epoch observation values (Epoch: 2026-08-23T12:46:07.576Z)
Latitude
-0.00005°
Longitude
-77.40661°
Altitude
1,185.161 km
Speed
7.264 km/s
True Right ascension
05h 43m 48s
True Declination
0° 00' 00"
Sunlit
Object was in daylight at epoch
Visualization orbit readout
Latitude
Unknown
Longitude
Unknown
Altitude
Unknown
Speed
Unknown
Apparent Right ascension
Unknown
Apparent Declination
Unknown
Sunlit
N/A
Visualization observer readout
Local Sidereal Time
15:54:09
Azimuth
Unknown
Elevation
Unknown
Doppler factor
Unknown
Orbital elements
Apogee altitude
1,199.611 km
Perigee altitude
1,172.994 km
Semi-major axis
7,564.439 km
Eccentricity
0.00176
Inclination
82.546°
RAAN
85.9517°
Arg. of periapsis
300.2829°
True anomaly
59.82948°
Mean anomaly
59.6553°
Eccentric anomaly
59.74237°
Mean motion
3.29897 °/min
Orbital period
109.13 mins
BSTAR
0.00019313
Loading maneuver chart data...
Computing Atmospheric mass density...
Loading historical data...
Loading historical data...
Loading historical data...
Loading historical data...
Loading historical data...
Loading historical data...
Loading historical data...

Documentation

Showing up to 5 results
|